Погода в Минске

Погода в Минске : погода сейчас, прогноз погоды и архив. Всё, что Вы хотите узнать о погоде в Минске!

Хотите узнать прогноз погоды Минск? Тогда Вам сюда: Погода Минск

Поиск расширенной информации на нашем сайте:

Другие новости

Новости СМИ2

Главная страница сайта

Новости сайта

02.10.2013

Напоминаем, что на нашем новом сайте вы можете получить высокодетализированные прогнозы погоды по пунктам России, СНГ и мира (включающие важные для авиации метеовеличины, такие как направление и скорость ветра, видимость, явления погоды, количество и форма облачности, нижняя и верхняя граница облачности), а также ознакомиться с разнообразными материалами по авиационной метеорологии и подборкой полезных ссылок на эту тему.

Сайт Метеоцентр.Азия посвящён разработке технологий оптимизации авиаметеорологического обслуживания, включая проектирование и перспективное создание нескольких автоматизированных авиаметеорологических систем:
- система выпуска высокодетальных прогностических карт явлений погоды для нижнего воздушного пространства по России и ближнему зарубежью;
- система верификации прогнозов TAF (выпускаемых синоптиками официальных АМСГ РФ и ближнего зарубежья) и AUTOTAF (выпускаемых сайтом Метеоцентр.Азия) - выявление ошибок, онлайн-сопоставление с фактической погодой METAR, автоматическое внесение коррективов в прогнозы при резком отклонении фактической погоды от прогноза, подсчёт оправдываемости прогнозов по элементам и в целом;
- система обработки, анализа и отображения авиаметеорологической информации для применения провайдерами метеорологической информации.


Погода в Минске - сегодня

Время (UTC), дата Ветер
(°,м/с) 
Видим.   Явления Облачность Т
(°С)
Тd
(°С)
f(%) Тe
(°С)
Pmin
(гПа)
dP
(гПа)
Po
(мм)
O2
(г/м3)
Тmin Tmax R s Состояние
почвы
06 23.05.17 310 (СЗ) 18000 м    6/0 верхняя 
[Ci fib]
+14.9 +6.5 57 +16  1014.9  741  282  +11.2         
09 23.05.17 290 (З) 17000 м    3/1 1000 м верхняя 
[Cu hum|Ci fib]
+18.5 +4.8 40 +19  1014.2  -0.3  741  279           
12 23.05.17 280 (З) 17000 м    1/0 верхняя 
[Ci fib]
+20.6 +2.2 30 +21  1013.2  -0.8  740  277           
15 23.05.17 260 (З) 18000 м    ясно 
+21.3 +1.3 26 +21  1012.1  -1  740  276           
18 23.05.17 290 (З) 17000 м    3/0 средняя 
[Ac trans]
+18 +2.3 35 +19  1012.6  0.2  740  279    +22.2       
21 23.05.17 тихо ()   17000 м    3/0 верхняя 
[Ci fib]
+12.8 +4.7 58 +13  1013.2  740  284           
00 24.05.17 тихо ()   13000 м    6/0 средняя 
[Ac trans]
+11.5 +5.9 68 +12  1012.7  -0.6  739  285           
03 24.05.17 300 (СЗ) 15000 м    8/0 средняя, верхняя 
[Ac trans|Ci fib]
+11.7 +6.3 69 +13  1012.4  -0.2  739  285           
06 24.05.17 310 (СЗ) 21000 м    3/0 верхняя 
[Ci fib]
+14.8 +6.3 57 +15  1012.3  0.2  739  282  +10.9         
09 24.05.17 320 (СЗ) 15000 м    6/0 верхняя 
[Cc]
+18.4 +2.4 34 +20  1011.9  739  279           
12 24.05.17 310 (СЗ) 17000 м    4/0 средняя, верхняя 
[Ac trans|Cc]
+21.3 +1.9 28 +21  1010.9  -0.7  739  276           
15 24.05.17 тихо ()   19000 м    8/0 средняя 
[Ac trans]
+20.4 +2.8 31 +20  1010.4  -0.6  738  276           
18 24.05.17 250 (З) 18000 м    8/0 средняя, верхняя 
[Ac trans|Ci fib]
+18.3 +3.3 37 +20  1010.7  0.1  738  278    +22.3       
21 24.05.17 тихо ()   17000 м    4/0 верхняя 
[Ci fib]
+14.5 +5.8 56 +15  1011.3  0.2  739  282           
00 25.05.17 320 (СЗ) 16000 м  в посл. час ливневой дождь  6/3 840 м средняя 
[Sc|Ac trans]
+14 +8.4 69 +15  1011.5  0.1  739  282      0.0     
03 25.05.17 280 (З) 16000 м  в посл. час ливневой дождь  9/6 500 м средняя 
[Sc|Ac trans]
+12.8 +9.9 83 +15  1011.4  -0.2  738  282      0.1     
06 25.05.17 тихо ()   14000 м  {ливн. осадки}  ясно 
+14.8 +9 68 +15  1012.2  739  281  +12.3    0.1     
09 25.05.17 340 (С) 11000 м    8/0 средняя 
[Ac trans]
+16.6 +6.5 51 +18  1013.1  740  280           
12 25.05.17 310 (СЗ) 16000 м    8/0 средняя, верхняя 
[Ac lent|Ci sp]
+18.7 +4.2 38 +20  1012.8  740  278           
15 25.05.17 тихо ()   18000 м    8/0 средняя, верхняя 
[Ac lent|Ci]
+18.4 +4.4 40 +18  1012.7  -0.2  740  279           
18 25.05.17 тихо ()   18000 м    8/0 средняя, верхняя 
[Ac und|Ci ing]
+17.8 +4.8 42 +18  1012.8  0.1  740  279    +20.8       
21 25.05.17 тихо ()   17000 м    ясно 
+12.9 +5.7 62 +13  1013.4  0.1  740  284           
00 26.05.17 тихо ()   17000 м    ясно 
+13 +7.2 68 +13  1013.6  0.2  740  283           
03 26.05.17 тихо ()   17000 м    3/0 верхняя 
[Ci fib]
+11.3 +7.3 76 +11  1013.8  740  285           
06 26.05.17 320 (СЗ) 10 км    8/0 верхняя 
[Ci fib]
+13 +8 72 +13  1014  0.3  740  283  +11.2         
Время (UTC), дата Ветер
(°,м/с) 
Видим.   Явления Облачность Т
(°С)
Тd
(°С)
f(%) Тe
(°С)
Pmin
(гПа)
dP
(гПа)
Po
(мм)
O2
(г/м3)
Тmin Tmax R s Состояние
почвы

Для получения пояснительной информации подведите курсор к названию столбца.

ПОГОДА в Минске - архив

Всё, что Вы хотите узнать о погоде в Минске - удобно и подробно!

Выберите нужную дату (начиная с 1 января 2015* года) и нажмите кнопку "Найти".
Будут отображены архивные сводки погоды по пункту Минск, начиная с указанной даты.


Отображать данные в формате CSV (для использования в таблицах Excel)


Внимание! Наш архив погоды предназначен исключительно для личного некоммерческого использования в познавательных целях. Если Вам необходимы официальные справки о состоянии погоды (для производственных, юридических, коммерческих и т.п. целей), обращайтесь в органы Росгидромета.

*Примечание: данная дата относится к архиву по метеостанциям СССР (Россия, СНГ, Балтия).
Архив по метеостанциям Зарубежной Европы и Азии (кроме Китая) хранится 10 дней, по другим регионам земного шара (Китай, Африка, Америка, Австралия, Океания) - 1 день.

Минск - район местоположения метеостанции


Название, широта, долгота, высота метеостанции:
Минск (город) 53.9°ш. 27.6°д. 231 м над ур. моря [Беларусь]

Дополнительная информация

В oтличие oт бoльшинства пoгoдных сайтoв мы публикуем пoдрoбную метеoинфoрмацию в детальнoм прoфессиoнальнoм фoрмате.

Характеристики температуры и влажнoсти вoздуха измеряются на высoте 2 м в тени вдали oт зданий и деревьев.
Скoрoсть ветра измеряется на высoте 10 м (на урoвне рoста челoвека скoрoсть ветра ниже в 1.5-2 раза). Если метеoстанция нахoдится в гoрoде или в лесу, тo скoрoсть ветра занижена на 2-4 м/с пo сравнению с oткрытым местoм. Скoрoсть ветра над акватoриями крупных рек и oзёр, а также на вершинах хoлмoв на 2-5 м/с выше, чем в oбычных услoвиях.
Атмoсфернoе давление в разных тoчках местнoсти мoжет значительнo oтличаться oт давления на метеoстанции, в зависимoсти oт услoвий рельефа (при пoдъёме на 10 м давление пoнижается примернo на 1 мм рт.ст.).